Probability
0 0 0 0 0 0 0 0 0 0 0 0 0 0 0 0 0 0 0 0 0 0 0 0 0 0 0 0 0 0 0 0 0 0 0 0 0 0 0 0 0 0 0 0
0 0 0 0 0 0 0 0 0 0 0 0 0 0 0 0 0 0 0 0 0 0 0 0 0 0 0 0 0 0 0 0 0 0 0 0 0 0 0 0 0 0 0 0
0 0 0 0 0 0 0 0 0 0 0 0 0 0 0 0 0 0 0 0 0 0 0 0 0 0 0 0 0 0 0 0 0 0 0 0 0 0 0 0 0 0 0 0
0 0 0 0 0 0 0 0 0 0 0 0 0 0 0 0 0 0 0 0 0 0 0 0 0 0 0 0 0 0 0 0 0 0 0 0 0 0 0 0 0 0 0 0
0 0 0 0 0 0 0 0 0 0 0 0 0 0 0 0 0 0 0 0 0 0 0 0 0 0 0 0 0 0 0 0 0 0 0 0 0 0 0 0 0 0 0 0
0 0 0 0 0 0 0 0 0 0 0 0 0 0 0 0 0 0 0 0 0 0 0 0 0 0 0 0 0 0 0 0 0 0 0 0 0 0 0 0 0 0 0 0
0 0 0 0 0 0 0 0 0 0 0 0 0 0 0 0 0 0 0 0 0 0 0 0 0 0 0 0 0 0 0 0 0 0 0 0 0 0 0 0 0 0 0 0
0 0 0 0 0 0 0 0 0 0 0 0 0 0 0 0 0 0 0 0 0 0 0 0 0 0 0 0 0 0 0 0 0 0 0 0 0 0 0 0 0 0 0 0
0 0 0 0 0 0 0 0 0 0 0 0 0 0 0 0 0 0 0 0 0 0 0 0 0 0 0 0 0 0 0 0 0 0 0 0 0 0 0 0 0 0 0 0
0 0 0 0 0 0 0 0 0 0 0 0 0 0 0 0 0 0 0 0 0 0 0 0 0 0 0 0 0 0 0 0 0 0 0 0 0 0 0 0 0 0 0 0
0 0 0 0 0 0 0 0 0 0 0 0 0 0 0 0 0 0 0 0 0 0 0 0 0 0 0 0 0 0 0 0 0 0 0 0 0 0 0 0 0 0 0 0
0 0 0 0 0 0 0 0 0 0 0 0 0 0 0 0 0 0 0 0 0 0 0 0 0 0 0 0 0 0 0 0 0 0 0 0 0 0 0 0 0 0 0 0
0 0 0 0 0 0 0 0 0 0 0 0 0 0 0 0 0 0 0 0 0 0 0 0 0 0 0 0 0 0 0 0 0 0 0 0 0 0 0 0 0 0 0 0
0 0 0 0 0 0 0 0 0 0 0 0 0 0 0 0 0 0 0 0 0 0 0 0 0 0 0 0 0 0 0 0 0 0 0 0 0 0 0 0 0 0 0 0
0 0 0 0 0 0 0 0 0 0 0 0 0 0 0 0 0 0 0 0 0 0 0 0 0 0 0 0 0 0 0 0 0 0 0 0 0 0 0 0 0 0 0 0
0 0 0 0 0 0 0 0 0 0 0 0 0 0 0 0 0 0 0 0 0 0 0 0 0 0 0 0 0 0 0 0 0 0 0 0 0 0 0 0 0 0 0 0
0 0 0 0 0 0 0 0 0 0 0 0 0 0 0 0 0 0 0 0 0 0 0 0 0 0 0 0 0 0 0 0 0 0 0 0 0 0 0 0 0 0 0 0
0 0 0 0 0 0 0 0 0 0 0 0 0 0 0 0 0 0 0 0 0 0 0 0 0 0 0 0 0 0 0 0 0 0 0 0 0 0 0 0 0 0 0 0
0 0 0 0 0 0 0 0 0 0 0 0 0 0 0 0 0 0 0 0 0 0 0 0 0 0 0 0 0 0 0 0 0 0 0 0 0 0 0 0 0 0 0 0
0 0 0 0 0 0 0 0 0 0 0 0 0 0 0 0 0 0 0 0 0 0 0 0 0 0 0 0 0 0 0 0 0 0 0 0 0 0 0 0 0 0 0 0
0 0 0 0 0 0 0 0 0 0 0 0 0 0 0 0 0 0 0 0 0 0 0 0 0 0 0 0 0 0 0 0 0 0 0 0 0 0 0 0 0 0 0 0
0 0 0 0 0 0 0 0 0 0 0 0 0 0 0 0 0 0 0 0 0 0 0 0 0 0 0 0 0 0 0 0 0 0 0 0 0 0 0 0 0 0 0 0
0 0 0 0 0 0 0 0 0 0 0 0 0 0 0 0 0 0 0 0 0 0 0 0 0 0 0 0 0 0 0 0 0 0 0 0 0 0 0 0 0 0 0 0
0 0 0 0 0 0 0 0 0 0 0 0 0 0 0 0 0 0 0 0 0 0 0 0 0 0 0 0 0 0 0 0 0 0 0 0 0 0 0 0 0 0 0 0
0 0 0 0 0 0 0 0 0 0 0 0 0 0 0 0 0 0 0 0 0 0 0 0 0 0 0 0 0 0 0 0 0 0 0 0 0 0 0 0 0 0 0 0
0 0 0 0 0 0 0 0 0 0 0 0 0 0 0 0 0 0 0 0 0 0 0 0 0 0 0 0 0 0 0 0 0 0 0 0 0 0 0 0 0 0 0 0
Wind_Speed
3 4 3 5 4 2 4 3 1 2 1 2 4 7 10 4 4 6 7 7 8 9 6 4 5 6 6 5 6 6 5 4 3 2 2 1 0 1 1 1 2 2 2 2
4 1 3 4 3 3 2 2 0 2 0 1 3 6 7 3 4 6 7 8 8 6 4 5 6 6 7 7 7 6 6 5 4 2 2 1 1 1 1 1 2 2 2 2
5 2 4 4 3 2 1 1 1 1 3 3 3 7 5 4 3 2 2 4 5 8 9 7 7 7 7 8 9 8 7 5 4 3 2 2 2 2 1 2 2 2 2 2
2 2 3 2 2 3 1 2 2 1 3 3 3 3 7 6 7 4 2 2 5 6 7 7 7 8 9 9 7 6 6 5 4 4 3 3 2 2 2 1 2 3 2 2
1 3 4 3 3 5 2 1 2 2 3 3 4 2 7 5 5 6 5 4 4 5 7 8 9 9 7 7 7 6 6 5 4 4 4 3 2 2 1 1 2 2 2 2
1 2 3 3 1 4 3 5 5 5 5 4 3 1 5 4 4 6 6 5 4 4 5 6 5 5 5 6 6 6 6 5 5 5 4 4 4 3 2 1 1 2 2 2
2 0 2 2 3 2 4 5 5 6 5 2 3 1 5 5 4 4 6 6 5 3 3 5 6 7 7 7 8 7 7 6 5 5 5 5 5 4 4 3 2 2 2 2
3 1 2 3 4 5 3 6 6 4 2 3 4 1 6 5 5 3 3 4 4 3 3 5 6 7 7 8 8 8 8 7 6 6 6 5 4 3 3 3 3 3 3 3
5 2 2 2 2 7 5 3 5 7 3 2 4 6 8 5 7 8 7 7 6 5 4 4 5 5 6 7 8 9 9 7 7 7 6 5 5 4 4 4 3 3 3 2
6 3 2 1 5 5 5 7 5 5 4 1 4 4 4 6 7 8 8 8 8 7 6 4 3 4 5 6 6 6 7 8 7 6 6 5 5 5 4 3 4 4 3 2
3 5 2 3 2 2 3 4 6 5 5 6 1 5 4 4 4 6 7 7 8 7 7 5 4 2 2 3 4 6 6 6 6 7 6 5 5 5 4 4 4 4 3 3
3 6 2 2 2 1 2 5 6 5 2 4 4 6 4 2 3 3 5 7 7 7 6 5 4 3 1 2 3 5 6 7 7 7 6 6 5 5 5 5 5 4 4 4
4 6 4 4 6 4 3 3 4 6 6 4 4 5 3 4 4 4 5 6 7 8 8 7 6 5 3 2 3 4 6 7 6 6 7 6 6 6 7 6 5 5 5 4
5 5 6 7 6 2 0 2 4 5 4 4 6 5 4 5 5 6 6 6 7 8 8 8 8 7 5 4 3 4 5 6 6 7 7 8 8 8 8 6 5 5 5 5
5 4 2 2 1 0 1 2 4 5 6 7 6 5 5 2 1 3 4 6 9 10 10 10 9 8 7 7 5 4 4 4 6 7 8 10 8 7 6 6 6 6 5 6
5 4 2 1 2 1 2 3 3 3 3 4 2 3 2 1 2 4 5 7 8 8 9 10 10 10 9 8 7 5 4 3 4 7 9 8 6 7 7 7 6 6 6 5
3 4 3 1 3 2 4 3 3 3 2 5 5 5 2 2 3 3 4 5 6 6 7 8 9 8 9 8 7 6 5 3 3 5 6 6 7 8 8 8 7 7 7 6
4 4 4 1 1 3 5 1 3 4 2 1 2 2 4 3 3 2 3 3 4 5 6 7 7 8 8 8 7 6 5 3 2 4 5 5 6 8 8 7 8 8 6 6
4 6 4 3 2 4 4 1 3 4 0 0 2 3 3 2 3 3 3 3 2 3 4 4 5 5 7 8 8 7 6 5 4 4 5 6 6 7 8 9 10 8 7 7
5 5 6 4 3 5 5 2 1 4 1 2 3 5 3 4 2 2 2 2 3 4 4 5 5 6 7 8 7 7 7 7 7 7 7 6 5 7 9 11 10 7 7 9
3 3 4 4 3 7 5 2 2 3 5 3 4 4 4 4 4 3 1 1 2 3 4 4 5 6 6 7 7 7 7 8 8 8 7 6 5 6 8 8 7 7 7 7
6 5 5 5 4 8 2 3 4 5 2 3 3 3 3 2 1 1 1 1 2 3 4 5 5 6 6 6 6 7 8 8 8 8 7 7 6 6 5 5 6 6 7 8
5 6 6 8 7 3 1 2 2 4 3 3 3 3 4 3 2 1 1 1 1 2 3 3 4 5 6 6 5 6 8 8 8 8 8 8 7 5 5 5 5 5 6 7
3 2 3 3 4 3 2 1 1 2 3 3 3 3 3 3 2 2 1 1 2 2 3 3 3 5 6 6 6 6 7 7 7 8 8 8 7 7 5 4 4 5 5 7
5 3 3 4 5 2 3 3 3 1 2 2 2 2 3 3 2 2 2 2 3 3 3 2 3 4 6 6 6 7 7 6 7 8 8 8 7 7 6 5 5 6 7 8
6 8 8 8 7 6 5 4 4 4 3 4 3 2 2 3 3 3 3 3 3 3 3 3 4 4 6 6 7 7 6 5 6 6 7 6 6 6 6 6 7 8 10 12
Wind_Direction
100 91 155 189 183 147 137 136 195 268 215 182 248 274 285 275 224 229 227 219 220 228 229 197 180 167 160 160 163 164 157 157 143 128 126 120 180 324 338 332 337 349 356 359
75 143 192 146 138 113 112 112 301 310 266 196 291 291 291 273 232 228 226 221 218 216 210 199 183 174 175 175 176 174 173 171 174 155 146 154 155 211 268 312 333 344 355 349
140 190 147 134 127 113 87 169 195 328 11 32 355 338 338 330 322 294 237 217 208 208 208 201 191 189 184 185 185 186 182 177 176 150 112 84 59 29 3 338 326 332 344 344
122 141 140 138 154 143 264 239 186 67 59 354 33 346 316 329 338 342 317 246 225 218 208 200 194 193 196 195 184 182 176 176 175 161 160 155 161 192 232 248 286 315 337 340
161 156 153 185 203 168 204 44 101 82 100 38 21 62 304 344 347 327 315 280 249 225 210 206 202 200 196 183 177 177 171 178 178 174 173 167 174 201 236 269 299 319 330 330
153 178 183 196 205 163 132 68 59 49 66 50 343 77 302 305 295 310 320 312 278 246 224 218 207 187 182 172 172 171 174 187 183 180 179 184 190 192 206 246 276 301 311 312
38 256 218 167 106 71 92 85 43 24 28 296 311 108 262 279 290 285 302 308 302 274 228 216 203 195 188 181 180 178 180 193 189 187 192 198 200 195 205 218 230 249 277 285
121 282 232 182 165 148 140 129 140 148 179 298 351 324 269 284 308 318 321 323 330 313 258 232 220 207 199 193 185 182 189 196 190 194 202 200 200 198 211 216 216 228 236 252
152 236 304 188 155 127 124 112 145 120 112 41 333 321 317 342 357 360 359 355 340 322 303 269 245 220 207 200 196 193 193 197 197 199 197 199 204 205 215 220 222 233 240 249
141 117 4 45 75 44 114 135 97 96 114 58 333 326 294 322 332 340 346 341 334 338 332 314 276 240 221 210 201 193 196 203 201 196 198 202 206 211 214 212 224 234 242 245
112 112 14 47 90 154 102 84 93 94 130 136 175 281 253 272 303 318 324 332 331 333 333 329 321 287 234 211 197 197 201 204 203 202 202 204 206 208 207 213 226 230 235 233
107 107 78 304 301 248 135 145 140 134 160 140 150 262 296 299 316 329 334 339 343 345 342 343 347 354 341 239 219 211 207 208 211 204 201 207 206 201 207 221 228 223 230 234
124 101 80 1 347 5 66 104 112 114 111 137 154 256 323 11 8 6 1 356 359 3 5 5 4 356 330 288 249 229 220 216 209 197 201 207 207 206 214 222 226 219 222 229
103 97 146 178 210 225 38 128 137 122 135 180 210 235 308 343 358 359 4 4 8 11 12 11 5 354 336 310 278 252 240 222 207 199 203 211 213 211 215 217 219 216 214 217
82 104 137 187 205 176 232 225 174 175 179 178 211 208 253 279 328 355 11 18 22 16 13 8 1 353 349 342 321 288 263 232 211 204 210 219 217 213 212 215 217 215 213 218
56 106 89 22 30 354 272 268 211 196 176 177 165 235 236 141 82 45 33 31 26 13 7 3 1 358 352 345 334 315 294 260 214 213 222 224 214 212 214 216 214 213 216 217
58 112 111 251 316 7 282 259 184 166 168 160 188 219 168 121 86 60 39 35 25 11 4 2 358 352 345 338 333 327 311 293 235 232 236 229 218 219 220 216 210 213 215 210
129 108 119 131 69 229 244 317 142 124 95 170 178 168 161 154 140 86 53 41 23 10 4 357 352 350 346 345 347 343 348 341 293 271 263 249 233 230 225 215 216 217 209 206
139 129 117 120 163 282 291 227 159 140 125 240 151 138 130 136 85 24 19 27 22 6 358 348 344 344 350 356 352 357 360 353 338 310 290 273 249 239 228 222 224 217 207 210
71 91 111 128 162 233 244 265 229 112 282 250 156 153 149 112 85 274 321 4 13 9 2 356 352 2 7 356 355 6 358 354 339 317 300 292 270 250 238 231 226 215 209 215
92 85 124 152 203 258 254 278 104 144 242 207 166 168 155 168 198 222 293 11 11 5 358 358 3 4 352 345 356 1 356 345 323 314 309 301 287 267 253 243 228 215 212 214
167 156 172 150 187 247 250 115 157 202 193 153 153 158 159 180 185 164 101 18 5 360 354 355 1 352 341 344 355 352 341 327 326 323 321 313 301 292 285 255 238 220 210 213
194 187 182 185 205 232 226 190 205 165 156 170 164 167 151 156 188 206 213 306 329 336 338 340 347 342 338 338 345 338 324 325 329 335 330 322 313 301 298 275 251 232 215 219
260 164 153 236 253 245 262 249 198 165 173 181 172 163 156 171 194 209 229 266 289 305 314 325 340 340 331 329 329 318 314 322 330 330 329 327 320 311 304 294 267 242 228 227
229 174 175 247 263 273 254 229 210 192 157 149 153 172 180 177 206 218 234 252 268 285 293 304 312 311 308 314 317 316 317 324 328 326 323 325 322 311 303 291 273 258 242 229
205 182 179 218 214 195 231 227 197 181 191 190 183 195 207 197 212 225 237 247 256 270 278 286 290 292 295 303 307 308 312 319 322 322 322 319 318 313 306 301 300 278 262 257